Retour au catalogue

TOS R/B

ActifGTO
NORAD 22797·ROCKET BODY·🇺🇸 United States

Lancé Sep 12, 1993 depuis Cape Canaveral Space Force Station

Loading…

TLE

VieillissantSource: Space-Track

Époque: Sep 14, 2026, 03:39 UTC

1 22797U 93058D   26257.15218310  .00001155  00000-0  16792-2 0  9994
2 22797  15.3394  31.7010 7365816 151.1132 286.1826  2.13552188250292

Suivez TOS R/B en temps réel avec AllMySat

Download on the App Store